Location: Marcé
(47.5801°N, 0.3280°W)
Time: 11:33:23
(UTC+01:00)

deb Explorer IX - Pass Details

Date: 06 December 2021
Orbit: 544 x 1082 km, 38.8° (Epoch: 17 January)

Event Time Altitude Azimuth Distance (km) Brightness Sun altitude
Rises 12:02:50 0° 247° (WSW) 3,029 ? 19.0°
Reaches altitude 10° 12:05:37 10° 235° (SW) 2,027 ? 19.1°
Maximum altitude 12:09:27 26° 179° (S) 1,181 ? 19.2°
Drops below altitude 10° 12:12:59 10° 122° (ESE) 1,855 ? 19.3°
Sets 12:15:26 0° 109° (ESE) 2,717 ? 19.4°
